Regional Weather Roundup
Issued by NWS

Home | Current Version | Previous Version | Text Only | Print | Product List | Glossary On
Versions: 1 2 3 4 5 6 7 8 9 10 11 12 13 14 15 16 17 18 19 20 21 22 23 24 25 26 27 28 29 30 31 32 33 34 35 36 37 38 39 40 41 42 43 44 45 46 47 48 49 50
000
ASUS43 KDTX 281410
RWRMI
MICHIGAN HOURLY REGIONAL WEATHER ROUNDUP
NATIONAL WEATHER SERVICE DETROIT/PONTIAC MI
1000 AM EDT MON JUL 28 2014

NOTE: "FAIR" INDICATES FEW OR NO CLOUDS BELOW 12,000 FEET WITH NO
SIGNIFICANT WEATHER AND/OR OBSTRUCTION TO VISIBILITY.

MIZ047>049-052>055-059>063-066>070-074>076-081>083-281500-
SOUTHEAST LOWER MICHIGAN

CITY           SKY/WX    TMP DP  RH WIND       PRES   REMARKS
ADRIAN         PTSUNNY   65  55  70 N13       29.91R
ALMA           CLOUDY    61  54  78 N10       29.95R
ANN ARBOR      CLOUDY    63  53  70 N14       29.89R
BAD AXE        CLOUDY    58  50  75 N13G21    29.90R
CARO           CLOUDY    61  54  77 NE7G21    29.90R
DETROIT CITY   LGT RAIN  65  53  65 N16G24    29.86R
DETROIT        CLOUDY    63  54  72 N14       29.88R
FLINT          CLOUDY    63  52  67 N13G22    29.91R
GROSSE ILE     CLOUDY    64  55  72 NW16      29.85R
HILLSDALE      CLOUDY    64  58  83 N9        29.93R
HOWELL         CLOUDY    61  56  84 N6        29.91R

CITY           SKY/WX    TMP DP  RH WIND       PRES   REMARKS
JACKSON        CLOUDY    63  56  78 N6        29.93R
LAMBERTVILLE   CLOUDY    64  55  72 N9G20     29.89R
LANSING        CLOUDY    61  55  81 N10       29.94R
LAPEER         CLOUDY    59  51  75 N15       29.90R
MASON          CLOUDY    61  56  81 N9        29.93R
MONROE         CLOUDY    64  55  72 N12G17    29.86R
MT. CLEMENS    CLOUDY    63  55  76 N18G25    29.85R
PONTIAC        CLOUDY    60  53  77 N13       29.88R
PORT HOPE        N/A     60  51  72 N13G23    29.89R
PORT HURON     CLOUDY    61  57  88 N15       29.84R
TRI CITIES     CLOUDY    62  54  74 N13       29.94R
TROY           CLOUDY    61  54  77 N10G21    29.88R
SAGINAW HB     CLOUDY    63  54  72 N13G18    29.92R
$$
MIZ043>046-050>051-056>058-064>065-071>073-077>080-281500-
SOUTHWEST LOWER MICHIGAN

CITY           SKY/WX    TMP DP  RH WIND       PRES   REMARKS
BATTLE CREEK   CLOUDY    62  55  77 N7        29.96R
BENTON HARBOR  CLOUDY    58  53  84 VRB5G20   30.00R
BIG RAPIDS     CLOUDY    59  53  80 N7        29.98R
COLDWATER      CLOUDY    63  56  80 N9        29.95R
FREMONT        CLOUDY    57  52  84 N10       30.00R
HOLLAND        CLOUDY    62  54  74 VRB5      30.00R
GRAND RAPIDS   PTSUNNY   63  56  78 N10       29.97R
IONIA          CLOUDY    62  56  81 N8        29.95R
KALAMAZOO      CLOUDY    62  55  77 N9        29.97R
LUDINGTON      CLOUDY    56  51  82 N16       30.03R
MARSHALL       CLOUDY    60  55  81 N6        29.94R
MOUNT PLEASANT CLOUDY    61  54  79 N9        29.95R
MUSKEGON       CLOUDY    59  52  77 N9        30.01R
SOUTH HAVEN    CLOUDY    57  55  91 N14G21    29.99S
$$
MIZ016>042-281500-
NORTHERN LOWER MICHIGAN

CITY           SKY/WX    TMP DP  RH WIND       PRES   REMARKS
ALPENA         CLOUDY    57  48  72 N14       29.95S
BEAVER ISLAND  CLOUDY    56  47  73 N7        30.04R
BELLAIRE       CLOUDY    56  46  68 N8G16     30.00R
CADILLAC       CLOUDY    54  52  94 NW9       29.98R
CHARLEVOIX     MOSUNNY   58  44  60 N15G22    30.05R
FRANKFORT      PTSUNNY   57  48  70 N7        30.03R
GAYLORD        CLOUDY    53  45  74 MISG      29.99R
GRAYLING       CLOUDY    56  50  79 N12       29.98S
HARBOR SPRINGS PTSUNNY   56  44  64 N8        30.01R
HOUGHTON LAKE  CLOUDY    57  51  80 N7        29.97R
MANISTEE       CLOUDY    57  48  72 N13       30.03R
OSCODA         CLOUDY    59  49  70 N13       29.92R
PELLSTON       CLOUDY    57  43  59 N14       30.01R
ROGERS CITY    CLOUDY    55  47  72 N8G17     29.98R
TRAVERSE CITY  CLOUDY    57  48  72 N14       30.00R
$$
MIZ007>008-015-281500-
EASTERN UPPER MICHIGAN

CITY           SKY/WX    TMP DP  RH WIND       PRES   REMARKS
KINROSS        MOSUNNY   57  46  67 N12       30.01R
MACKINAC ISLAN CLOUDY    54  45  70 N8        30.01R
NEWBERRY       SUNNY     54  44  70 NW7       30.04S
S. S. MARIE    PTSUNNY   57  43  59 N10       30.00R
MUNISING         N/A     56  46  69 NW9       30.08R
$$
MIZ004>006-011>014-085-281500-
CENTRAL UPPER MICHIGAN

CITY           SKY/WX    TMP DP  RH WIND       PRES   REMARKS
MANISTIQUE     SUNNY     56  45  64 N8        30.06R
ESCANABA       SUNNY     57  43  58 NE9       30.08R
MENOMINEE      CLOUDY    55  43  62 N8        30.10R
SAWYER-GWINN   CLOUDY    55  43  62 N5        30.09R
$$
MIZ001>003-009>011-084-281500-
WESTERN UPPER MICHIGAN

CITY           SKY/WX    TMP DP  RH WIND       PRES   REMARKS
IRON MOUNTAIN  CLOUDY    55  47  74 NW3       30.09S
COPPER HARBOR    N/A     61  51  70 N10       30.05S
IRONWOOD       MOSUNNY   61  55  82 NW6       30.12S
$$

ABBREVIATIONS USED IN REMARKS
   TC - TEMPERATURE IN CELSIUS
  WCI - WIND CHILL INDEX
   HX - HEAT INDEX
  VSB - VISIBILITY




USA.gov is the U.S. government's official web portal to all federal, state and local government web resources and services.